Ganchi

Tajikistan     39˚57′55″N   69˚07′45″E
temp.,
°C
wind,
m/s
gust,
m/s
humid.,
%
clouds,
%
prec.,
mm/h
press.,
hPa
HPBL,
m
30 november, mon
mon3023:00−5˚se11834 0.0 103622
02:00−5˚ese12761 0.0 103421
05:00−4˚e227635 0.0 103321
08:00−3˚e2378100 0.0 103227
11:00ene4684100 0.0 1030259
14:00+1˚ene3587100 0.0 1027265
17:00e2277100 0.0 102722
20:00−1˚e1170100 0.0 102721
1 december, tue
tue123:00−1˚ese126098 0.0 102721
02:00ese235399 0.0 102622
05:00+1˚w1155100 0.0 102622
08:00+2˚sse3362100 0.1 102632
11:00+4˚e238792 0.1 102671
14:00+4˚e458123 0.0 1024166
17:00+2˚ese447312 0.0 102556
20:00+1˚e34670 0.0 102638
2 december, wed
wed223:00+2˚ese23623 0.0 102528
02:00+2˚ese225993 0.0 102523
05:00+2˚ese226396 0.0 102522
08:00+3˚se1260100 0.0 102622
11:00+6˚se1173100 0.0 102562
14:00+7˚ne0074100 0.0 102487
17:00+5˚ese1171100 0.0 102422
20:00+5˚se2366100 0.2 102525
3 december, thu
thu323:00+5˚ese336198 0.3 102444
02:00+4˚e3365100 0.0 102463
05:00+2˚e2277100 0.0 102427
08:00+3˚ese3370100 0.0 102541
11:00+6˚ene2374100 0.0 1024210
14:00+7˚ene3473100 0.0 1022288
17:00+4˚e2284100 0.0 102231
20:00+4˚n2288100 0.0 102233
4 december, fri
fri423:00+3˚wnw1197100 0.8 102154
02:00+3˚w2299100 2.7 102171
05:00+3˚w2399100 6.1 1021142
08:00+3˚w2299100 2.7 1023131
11:00+2˚nw1298100 4.3 1025113
14:00+1˚nnw1198100 1.4 1025117
17:00+1˚ne1198100 3.1 102760
20:00+1˚nnw1298100 1.2 102991